FW7851 Weather Reports


Display with metric or nautical units.
time (UTC)temp
F
wind
direction
speed
MPH
gust
MPH
rain 1hr
in
rain 24hr
in
rain mn
in
humidity
%
barometer
mb
20260504100418 41 358 0.0 0.0 0.00 0.00 0.00 83 1011.0
20260504081812 42 350 0.0 0.0 0.00 0.00 0.00 84 1010.8
20260504081309 42 348 0.0 0.0 0.00 0.00 0.00 84 1010.8
20260504080804 42 356 0.0 0.0 0.00 0.00 0.00 83 1010.8
20260504080301 42 353 0.0 0.0 0.00 0.00 0.00 82 1010.6
20260504070229 37 327 0.0 0.0 0.00 0.00 0.00 93 1010.6
20260504060149 38 317 0.0 0.0 0.00 0.00 0.00 92 1010.4
20260504050617 38 324 0.0 0.0 0.00 0.00 0.00 90 1010.3
20260504050115 38 332 0.0 0.0 0.00 0.00 0.00 90 1010.4
20260504045612 38 332 0.0 0.0 0.00 0.00 0.00 90 1010.5
20260504045106 38 329 0.0 0.0 0.00 0.00 0.00 89 1010.5
20260504044604 39 328 0.0 0.0 0.00 0.00 0.00 89 1010.2
20260504044101 39 327 0.0 0.0 0.00 0.00 0.00 89 1010.4
20260504043558 39 0 0.0 0.0 0.00 0.00 0.00 89 1010.2
20260504043055 39 338 0.0 0.0 0.00 0.00 0.00 89 1010.5
20260504042552 39 339 0.0 0.0 0.00 0.00 0.00 90 1010.4
20260504042049 39 342 0.0 0.0 0.00 0.00 0.00 89 1010.5
20260504041545 39 322 0.0 0.0 0.00 0.00 0.00 89 1010.1
20260504041041 39 342 0.0 0.0 0.00 0.00 0.00 89 1010.2
20260504040539 40 342 0.0 0.0 0.00 0.00 0.00 88 1010.2
20260504040035 40 338 0.0 0.0 0.00 0.00 0.00 88 1010.1
20260504035532 40 342 0.0 0.0 0.00 0.00 0.00 87 1009.9
20260504035029 41 335 0.0 0.0 0.00 0.00 0.00 87 1010.1
20260504034526 41 333 0.0 1.0 0.00 0.00 0.00 86 1010.2
20260504034023 41 332 0.0 0.0 0.00 0.00 0.00 85 1010.1
20260504033521 42 331 0.0 0.0 0.00 0.00 0.00 84 1010.1
20260504033018 41 333 0.0 0.0 0.00 0.00 0.00 84 1010.1
20260504032515 42 333 0.0 0.0 0.00 0.00 0.00 83 1010.0
20260504032012 41 325 0.0 0.0 0.00 0.00 0.00 83 1010.3
20260504031509 42 320 0.0 0.0 0.00 0.00 0.00 83 1010.0
20260504031005 42 330 0.0 0.0 0.00 0.00 0.00 83 1010.1
20260504030503 42 331 0.0 0.0 0.00 0.00 0.00 82 1010.2
20260504025958 42 331 0.0 0.0 0.00 0.00 0.00 80 1009.7
20260504025455 43 331 0.0 0.0 0.00 0.00 0.00 78 1009.8
20260504024952 43 331 0.0 0.0 0.00 0.00 0.00 78 1010.1
20260504024449 44 331 0.0 0.0 0.00 0.00 0.00 77 1009.9
20260504023946 44 331 0.0 0.0 0.00 0.00 0.00 75 1009.8
20260504023443 45 331 0.0 0.0 0.00 0.00 0.00 75 1009.9
20260504022938 45 331 0.0 0.0 0.00 0.00 0.00 73 1010.0
20260504022435 46 331 0.0 0.0 0.00 0.00 0.00 72 1010.0
20260504021932 46 320 0.0 0.0 0.00 0.00 0.00 70 1009.9
20260504021429 46 248 0.0 0.0 0.00 0.00 0.00 69 1010.0
20260504020926 47 306 0.0 0.0 0.00 0.00 0.00 70 1009.8
20260504020423 47 324 0.0 0.0 0.00 0.00 0.00 68 1010.0
20260504015919 48 352 0.0 0.0 0.00 0.00 0.00 65 1009.6
20260504015415 49 341 0.0 0.0 0.00 0.00 0.00 63 1009.9
20260504014911 50 311 0.0 0.0 0.00 0.00 0.00 59 1009.9
20260504014408 50 307 0.0 0.0 0.00 0.00 0.00 54 1010.0
20260504013905 50 305 0.0 0.0 0.00 0.00 0.00 52 1009.8
20260504013403 50 306 0.0 0.0 0.00 0.00 0.00 51 1009.9
20260504012858 50 295 0.0 0.0 0.00 0.00 0.00 51 1009.9
20260504012357 50 297 0.0 0.0 0.00 0.00 0.00 52 1009.8
20260504011854 50 303 0.0 0.0 0.00 0.00 0.00 51 1009.8
20260504011350 50 312 0.0 0.0 0.00 0.00 0.00 50 1009.8
20260504010846 51 312 0.0 0.0 0.00 0.00 0.00 50 1009.9
20260504010342 51 311 0.0 0.0 0.00 0.00 0.00 49 1009.7
20260504005839 51 301 0.0 0.0 0.00 0.00 0.00 49 1009.5
20260504005336 51 310 0.0 0.0 0.00 0.00 0.00 49 1009.5
20260504004833 51 300 0.0 0.0 0.00 0.00 0.00 49 1009.4
20260504004331 51 302 0.0 0.0 0.00 0.00 0.00 48 1009.5
20260504003827 51 315 0.0 0.0 0.00 0.00 0.00 48 1009.3
20260504003324 52 302 0.0 0.0 0.00 0.00 0.00 47 1009.2
20260504002821 52 301 0.0 0.0 0.00 0.00 0.00 47 1009.1
20260504002318 53 300 0.0 0.0 0.00 0.00 0.00 45 1009.0
20260504001815 53 305 0.0 0.0 0.00 0.00 0.00 46 1009.0
20260504001313 53 307 0.0 0.0 0.00 0.00 0.00 45 1009.0
20260504000809 54 288 0.0 0.0 0.00 0.00 0.00 44 1009.0
20260504000306 54 213 0.0 0.0 0.00 0.00 0.00 44 1009.0
20260503235804 54 311 0.0 0.0 0.00 0.00 0.00 42 1008.8
20260503235301 55 317 0.0 0.0 0.00 0.00 0.00 43 1008.5
20260503234759 55 328 0.0 0.0 0.00 0.00 0.00 42 1008.6
20260503234257 55 333 0.0 0.0 0.00 0.00 0.00 43 1008.5
20260503233754 55 315 0.0 0.0 0.00 0.00 0.00 40 1008.5
20260503233249 55 323 1.0 2.0 0.00 0.00 0.00 41 1008.6
20260503232747 55 337 1.0 1.0 0.00 0.00 0.00 40 1008.5
20260503232244 55 342 0.0 0.0 0.00 0.00 0.00 40 1008.4
20260503231742 55 340 0.0 0.0 0.00 0.00 0.00 40 1008.4
20260503231239 56 346 1.0 1.0 0.00 0.00 0.00 40 1008.2
20260503230734 56 336 0.0 0.0 0.00 0.00 0.00 39 1008.2
20260503230232 56 312 1.0 3.0 0.00 0.00 0.00 36 1008.1
20260503225729 56 336 1.0 1.0 0.00 0.00 0.00 37 1008.1
20260503225229 56 279 0.0 0.0 0.00 0.00 0.00 35 1008.2
20260503224726 56 320 0.0 0.0 0.00 0.00 0.00 35 1008.1
20260503224224 56 319 1.0 3.0 0.00 0.00 0.00 35 1008.2
20260503223721 56 335 1.0 1.0 0.00 0.00 0.00 34 1008.1
20260503223219 57 317 0.0 0.0 0.00 0.00 0.00 35 1007.8
20260503222715 57 336 5.0 6.0 0.00 0.00 0.00 33 1008.1
20260503222213 57 333 0.0 1.0 0.00 0.00 0.00 35 1007.8
20260503221711 58 340 5.0 7.0 0.00 0.00 0.00 31 1007.9
20260503221209 58 334 3.0 3.0 0.00 0.00 0.00 31 1008.0
20260503220705 58 341 5.0 6.0 0.00 0.00 0.00 32 1007.8
20260503220202 58 10 3.0 5.0 0.00 0.00 0.00 31 1007.9
20260503215659 57 347 5.0 6.0 0.00 0.00 0.00 32 1007.9
20260503215155 58 354 5.0 8.0 0.00 0.00 0.00 32 1008.1
20260503214654 58 22 1.0 1.0 0.00 0.00 0.00 34 1007.8
20260503214150 58 331 5.0 7.0 0.00 0.00 0.00 32 1008.1
20260503213649 58 340 5.0 6.0 0.00 0.00 0.00 33 1007.8
20260503213146 58 8 1.0 1.0 0.00 0.00 0.00 35 1007.9
20260503212643 58 329 3.0 3.0 0.00 0.00 0.00 38 1007.8
20260503212140 58 356 3.0 3.0 0.00 0.00 0.00 33 1007.7
20260503211638 58 308 0.0 1.0 0.00 0.00 0.00 38 1007.8
20260503211133 58 289 2.0 5.0 0.00 0.00 0.00 37 1007.9
20260503210630 58 286 1.0 1.0 0.00 0.00 0.00 39 1007.8
20260503210126 57 9 1.0 1.0 0.00 0.00 0.00 40 1008.1
20260503205622 56 285 6.0 9.0 0.00 0.00 0.00 36 1008.0
20260503205119 56 14 4.0 5.0 0.00 0.00 0.00 37 1008.1
20260503204615 57 359 1.0 1.0 0.00 0.00 0.00 38 1008.0
20260503204113 59 342 1.0 2.0 0.00 0.00 0.00 37 1007.7
20260503203610 59 335 3.0 3.0 0.00 0.00 0.00 38 1007.9
20260503203107 57 337 1.0 1.0 0.00 0.00 0.00 41 1007.8
20260503202605 57 325 6.0 8.0 0.00 0.00 0.00 38 1008.0
20260503202102 57 334 6.0 9.0 0.00 0.00 0.00 37 1007.9
20260503201555 59 304 4.0 7.0 0.00 0.00 0.00 37 1008.2
20260503201052 57 26 1.0 1.0 0.00 0.00 0.00 41 1008.0
20260503200548 56 53 1.0 2.0 0.00 0.00 0.00 40 1008.2
20260503200044 55 336 2.0 2.0 0.00 0.00 0.00 39 1008.5
20260503195541 55 20 0.0 1.0 0.00 0.00 0.00 42 1008.4
20260503195038 57 10 0.0 1.0 0.00 0.00 0.00 46 1008.2
20260503194535 57 331 2.0 2.0 0.00 0.00 0.00 39 1008.5
20260503194035 55 21 1.0 2.0 0.00 0.00 0.00 40 1008.6
20260503193532 54 277 3.0 5.0 0.00 0.00 0.00 40 1008.5
20260503193027 55 7 2.0 2.0 0.00 0.00 0.00 42 1008.6
20260503192524 55 31 1.0 1.0 0.00 0.00 0.00 48 1008.7
20260503192020 56 64 2.0 2.0 0.00 0.00 0.00 44 1008.6
20260503191517 57 220 1.0 2.0 0.00 0.00 0.00 44 1008.9
20260503191014 55 315 2.0 3.0 0.00 0.00 0.00 43 1009.0
20260503190510 56 311 5.0 6.0 0.00 0.00 0.00 43 1008.9
20260503190008 54 327 1.0 2.0 0.00 0.00 0.00 40 1009.1
20260503185504 55 346 4.0 6.0 0.00 0.00 0.00 42 1009.0
20260503185004 54 78 2.0 2.0 0.00 0.00 0.00 46 1009.1
20260503184500 53 16 0.0 1.0 0.00 0.00 0.00 44 1009.1
20260503183956 54 337 9.0 11.0 0.00 0.00 0.00 43 1009.2
20260503183453 54 323 6.0 8.0 0.00 0.00 0.00 43 1009.3
20260503182950 53 340 2.0 5.0 0.00 0.00 0.00 44 1009.2
20260503182449 53 13 2.0 2.0 0.00 0.00 0.00 44 1009.4
20260503181946 53 344 1.0 2.0 0.00 0.00 0.00 43 1009.3
20260503181443 52 352 7.0 9.0 0.00 0.00 0.00 44 1009.3
20260503180939 52 354 2.0 5.0 0.00 0.00 0.00 47 1009.5
20260503180438 52 336 2.0 3.0 0.00 0.00 0.00 46 1009.4
20260503175934 51 293 3.0 6.0 0.00 0.00 0.00 45 1009.2
20260503175432 52 6 1.0 2.0 0.00 0.00 0.00 50 1009.4
20260503174928 51 340 2.0 3.0 0.00 0.00 0.00 45 1009.4
20260503174426 51 277 0.0 1.0 0.00 0.00 0.00 46 1009.3
20260503173926 51 334 3.0 3.0 0.00 0.00 0.00 45 1009.5
20260503173422 51 223 1.0 2.0 0.00 0.00 0.00 48 1009.5
20260503172919 51 314 2.0 5.0 0.00 0.00 0.00 46 1009.5
20260503172417 52 329 6.0 9.0 0.00 0.00 0.00 45 1009.6
20260503171913 51 305 3.0 5.0 0.00 0.00 0.00 49 1009.3
20260503171410 51 334 7.0 8.0 0.00 0.00 0.00 44 1009.7
20260503170907 51 339 4.0 5.0 0.00 0.00 0.00 47 1009.4
20260503170403 52 302 3.0 5.0 0.00 0.00 0.00 45 1009.5
20260503150755 50 344 0.0 0.0 0.00 0.00 0.00 50 1009.6
20260503150251 50 350 8.0 10.0 0.00 0.00 0.00 49 1009.7
20260503140216 48 352 1.0 1.0 0.00 0.00 0.00 59 1009.8
20260503131146 46 329 1.0 2.0 0.00 0.00 0.00 62 1010.0
20260503130643 46 341 8.0 9.0 0.00 0.00 0.00 63 1010.1
20260503130141 47 342 1.0 2.0 0.00 0.00 0.00 64 1010.0
20260503120106 42 345 0.0 1.0 0.00 0.00 0.00 77 1010.0
20260503110533 35 345 0.0 0.0 0.00 0.00 0.00 96 1009.9